Location: Florence
(33.9745°N, 118.2481°W)
Time: 20:42:53
(UTC+00:00)

Cosmos 1408 Rocket - Pass Details

Date: 23 March 2023
Orbit: 598 x 629 km, 82.6° (Epoch: 05 June)

Event Time Altitude Azimuth Distance (km) Brightness Sun altitude
Rises 12:52:55 0° 340° (NNW) 2,923 6.9 -13.2°
Reaches altitude 10° 12:55:24 10° 329° (NNW) 2,010 6.0 -12.7°
Maximum altitude 12:59:12 28° 270° (W) 1,168 4.4 -11.9°
Drops below altitude 10° 13:02:59 10° 211° (SSW) 1,988 5.8 -11.1°
Sets 13:05:25 0° 200° (SSW) 2,885 6.7 -10.6°
